Regional Weather Roundup
Issued by NWS

Home | Current Version | Previous Version | Graphics & Text | Print | Product List | Glossary On
Versions: 1 2 3 4 5 6 7 8 9 10 11 12 13 14 15 16 17 18 19 20 21 22 23 24 25 26 27 28 29 30 31 32 33 34 35 36 37 38 39 40 41 42 43 44 45 46 47 48 49 50
000
ASUS43 KFSD 192210
RWRSD

WEATHER ROUNDUP FOR SOUTH DAKOTA
NATIONAL WEATHER SERVICE SIOUX FALLS SD
400 PM CST THU JAN 19 2017

NOTE: "FAIR" INDICATES FEW OR NO CLOUDS BELOW 12,000 FEET WITH NO
SIGNIFICANT WEATHER AND/OR OBSTRUCTIONS TO VISIBILITY.


SDZ001>005-009-010-012>017-192300-
NORTHWEST AND NORTH CENTRAL SOUTH DAKOTA

CITY           SKY/WX    TMP DP  RH WIND       PRES   REMARKS
BUFFALO          N/A     37  27  67 NW5       29.39R
MOBRIDGE       CLOUDY    22  16  78 SE7       29.48R WCI  13
$$

SDZ012>016-024>037-041>051-057-063-072>074-192300-
SOUTHWEST AND SOUTH CENTRAL SOUTH DAKOTA

CITY           SKY/WX    TMP DP  RH WIND       PRES   REMARKS
RAPID CTY ARPT SUNNY     37  27  67 W3        29.46S
PIERRE         CLOUDY    29  23  78 CALM      29.49S
CUSTER         SUNNY     48  18  30 W9        29.47R
ELLSWORTH AFB  SUNNY     43  25  49 CALM      29.45S
PHILIP         CLOUDY    32  25  75 N7        29.46S WCI  26
PINE RIDGE     SUNNY     41  28  60 SW13      29.46S
SPEARFISH      FAIR      45  27  49 SE7       29.46S
WINNER         FAIR      48  35  60 S14       29.49R
$$

SDZ004>011-016>023-039-040-192300-
NORTHEAST SOUTH DAKOTA

CITY           SKY/WX    TMP DP  RH WIND       PRES   REMARKS
ABERDEEN       FOG       33  32  96 S10       29.57R VSB 1/4 WCI  25
WATERTOWN      FOG       33  33 100 S12       29.60S VSB 1/4 WCI  24
BROOKINGS      FOG       35  33  92 S15       29.62S VSB 1/4 WCI  25
SISSETON         N/A     38  36  92 S13       29.59R
$$

SDZ017-020-022-023-036>040-048>070-192300-
SOUTHEAST SOUTH DAKOTA

CITY           SKY/WX    TMP DP  RH WIND       PRES   REMARKS
SIOUX FALLS    FOG       38  38 100 SE9       29.64S VSB 1/4
HURON          FOG       36  36 100 SE12      29.56F VSB 1
CHAMBERLAIN    PTSUNNY   43  40  87 SE8       29.52S
MITCHELL       CLOUDY    39  39 100 SE8       29.59S FOG
YANKTON        CLOUDY    41  37  87 SE12      29.62R
$$

ABBREVIATIONS USED IN REMARKS
   TC - TEMPERATURE IN CELSIUS
  WCI - WIND CHILL INDEX
   HX - HEAT INDEX
  VSB - VISIBILITY





USA.gov is the U.S. government's official web portal to all federal, state and local government web resources and services.